CW5834 Weather Reports


time (UTC)temp
C
wind
direction
speed
KPH
gust
KPH
rain 1hr
cm
rain 24hr
cm
rain mn
cm
humidity
%
barometer
mb
20260507113517 11 0.0 3.2 0.00 0.56 0.08 92 1012.9
20260507112517 11 0.0 3.2 0.00 0.56 0.08 93 1012.9
20260507111517 11 0.0 3.2 0.00 0.56 0.08 93 1013.0
20260507110517 11 0.0 1.6 0.00 0.58 0.08 92 1013.0
20260507105537 11 0.0 3.2 0.03 0.58 0.08 92 1013.0
20260507104517 11 0.0 3.2 0.03 0.58 0.08 92 1013.0
20260507103517 11 0.0 3.2 0.03 0.61 0.08 92 1012.8
20260507102517 11 0.0 3.2 0.03 0.61 0.08 92 1013.0
20260507101517 11 0.0 3.2 0.03 0.61 0.08 92 1013.0
20260507100517 11 0.0 3.2 0.03 0.61 0.08 92 1012.6
20260507095517 11 0.0 1.6 0.00 0.58 0.05 92 1012.8
20260507094516 11 0.0 3.2 0.00 0.58 0.05 92 1012.4
20260507093516 11 0.0 3.2 0.00 0.58 0.05 92 1012.9
20260507092517 11 0.0 3.2 0.00 0.58 0.05 92 1012.8
20260507091536 11 0.0 1.6 0.00 0.58 0.05 91 1012.4
20260507090516 11 0.0 3.2 0.00 0.58 0.05 91 1012.4
20260507085516 11 0 1.6 3.2 0.03 0.58 0.05 91 1012.3
20260507084517 12 0.0 3.2 0.03 0.58 0.05 91 1012.0
20260507083517 12 0 1.6 4.8 0.03 0.58 0.05 90 1012.2
20260507082516 12 315 4.8 8.0 0.03 0.58 0.05 90 1012.8
20260507081517 12 315 1.6 9.7 0.03 0.58 0.05 91 1012.8
20260507080516 12 338 1.6 3.2 0.03 0.58 0.05 91 1012.6
20260507075516 12 315 3.2 6.4 0.00 0.56 0.03 90 1012.6
20260507074516 12 315 3.2 8.0 0.00 0.56 0.03 91 1012.6
20260507073516 12 68 3.2 8.0 0.00 0.56 0.03 91 1012.6
20260507072516 12 0.0 1.6 0.00 0.56 0.03 92 1012.6
20260507071516 12 293 1.6 6.4 0.00 0.56 0.03 92 1012.7
20260507070536 12 0.0 3.2 0.00 0.56 0.03 92 1012.3
20260507065516 12 0.0 3.2 0.00 0.56 0.03 93 1012.6
20260507064516 12 0.0 1.6 0.03 0.56 0.03 93 1012.6
20260507063516 12 338 3.2 6.4 0.03 0.56 0.03 92 1012.6
20260507062516 12 113 1.6 6.4 0.03 0.56 0.03 92 1012.8
20260507061516 13 338 3.2 8.0 0.03 0.56 0.03 91 1013.1
20260507060536 13 0 4.8 11.3 0.03 0.56 0.03 91 1013.1
20260507055517 13 293 6.4 12.9 0.03 0.58 0.03 91 1013.3
20260507054516 13 315 4.8 12.9 0.00 0.56 0.00 91 1013.2
20260507053516 13 315 3.2 12.9 0.00 0.56 0.00 91 1013.5
20260507052536 14 315 3.2 9.7 0.00 0.56 0.00 92 1013.6
20260507051517 14 338 1.6 6.4 0.00 0.56 0.00 92 1013.5
20260507050516 14 338 3.2 12.9 0.00 0.56 0.00 92 1013.2
20260507045516 14 315 3.2 8.0 0.00 0.56 0.00 92 1013.0
20260507044516 15 315 1.6 3.2 0.00 0.56 0.00 92 1012.8
20260507043516 15 0 1.6 4.8 0.00 0.56 0.00 92 1012.7
20260507042516 15 315 1.6 3.2 0.00 0.56 0.00 92 1012.8
20260507041516 15 23 1.6 3.2 0.03 0.56 0.00 92 1012.8
20260507040516 15 0.0 3.2 0.03 0.56 0.00 92 1013.1
20260507035517 15 0.0 3.2 0.03 0.56 0.56 92 1013.1
20260507034517 15 0 1.6 4.8 0.03 0.58 0.56 93 1013.7
20260507033517 15 0.0 3.2 0.03 0.58 0.56 93 1013.7
20260507032537 15 0.0 3.2 0.03 0.58 0.56 93 1013.7
20260507031517 15 315 1.6 3.2 0.00 0.56 0.53 93 1014.1
20260507030517 15 0.0 3.2 0.00 0.56 0.53 93 1013.6
20260507025517 15 0.0 0.0 0.00 0.56 0.53 93 1013.8
20260507024517 15 0.0 3.2 0.00 0.56 0.53 93 1013.4
20260507023517 15 0.0 3.2 0.00 0.56 0.53 93 1013.3
20260507022516 15 0.0 3.2 0.00 0.56 0.53 93 1013.6
20260507021517 15 0.0 1.6 0.00 0.56 0.53 92 1013.4
20260507020516 15 0.0 0.0 0.03 0.56 0.53 92 1013.2
20260507015516 15 0.0 1.6 0.03 0.56 0.53 92 1013.7
20260507014517 16 338 3.2 6.4 0.03 0.56 0.53 91 1013.0
20260507013516 16 0.0 3.2 0.03 0.56 0.53 91 1013.3
20260507012517 16 0.0 3.2 0.03 0.56 0.53 91 1013.3
20260507011536 16 315 1.6 6.4 0.03 0.56 0.53 91 1014.1
20260507010516 16 113 1.6 4.8 0.03 0.53 0.51 92 1014.2
20260507005556 16 315 3.2 11.3 0.05 0.53 0.51 92 1014.5
20260507004516 16 338 1.6 3.2 0.05 0.53 0.51 92 1014.2
20260507003519 16 315 1.6 3.2 0.08 0.53 0.51 92 1013.6
20260507002537 17 0.0 3.2 0.20 0.53 0.51 91 1013.0
20260507001516 17 0.0 3.2 0.20 0.53 0.51 91 1013.2
20260507000516 17 338 3.2 4.8 0.20 0.51 0.48 91 1013.5
20260506235516 17 180 1.6 3.2 0.20 0.48 0.46 91 1012.8
20260506234516 17 270 1.6 3.2 0.20 0.48 0.46 90 1012.8
20260506233516 17 338 3.2 8.0 0.18 0.46 0.43 88 1012.5
20260506232516 18 270 6.4 12.9 0.05 0.33 0.30 88 1013.0
20260506231536 18 180 3.2 8.0 0.05 0.33 0.30 89 1012.3
20260506230517 19 180 3.2 12.9 0.03 0.30 0.28 88 1012.7
20260506225536 19 203 3.2 8.0 0.00 0.28 0.25 87 1012.6
20260506224616 19 225 4.8 12.9 0.00 0.28 0.25 86 1012.7
20260506223516 19 180 3.2 8.0 0.00 0.28 0.25 86 1012.6
20260506222536 19 203 3.2 8.0 0.00 0.28 0.25 86 1012.6
20260506221516 19 203 3.2 9.7 0.00 0.28 0.25 86 1012.4
20260506220516 19 203 4.8 11.3 0.00 0.28 0.25 85 1012.4
20260506215516 20 203 6.4 17.7 0.00 0.28 0.25 85 1012.6
20260506214516 20 203 4.8 12.9 0.00 0.28 0.25 84 1012.6
20260506213516 20 225 4.8 11.3 0.00 0.28 0.25 83 1012.4
20260506212516 20 225 6.4 16.1 0.00 0.28 0.25 82 1012.3
20260506211516 20 225 4.8 11.3 0.00 0.28 0.25 81 1011.9
20260506210516 20 203 4.8 12.9 0.00 0.28 0.25 80 1012.0
20260506205544 20 225 4.8 14.5 0.00 0.28 0.25 81 1012.0
20260506204516 20 203 3.2 9.7 0.00 0.28 0.25 81 1012.0
20260506203516 20 225 3.2 14.5 0.00 0.28 0.25 80 1012.6
20260506202516 20 225 6.4 20.9 0.00 0.28 0.25 79 1012.5
20260506201536 21 225 8.0 17.7 0.00 0.28 0.25 80 1012.7
20260506200516 21 225 6.4 19.3 0.00 0.28 0.25 80 1013.0
20260506195516 20 203 6.4 17.7 0.00 0.28 0.25 80 1013.2
20260506194516 21 180 6.4 14.5 0.00 0.28 0.25 79 1013.3
20260506193516 21 203 4.8 14.5 0.00 0.28 0.25 79 1013.2
20260506192516 20 180 4.8 12.9 0.00 0.28 0.25 80 1013.0
20260506191556 20 225 3.2 8.0 0.00 0.28 0.25 81 1012.9
20260506190636 20 203 3.2 9.7 0.00 0.28 0.25 81 1012.9
20260506185516 20 225 4.8 17.7 0.00 0.28 0.25 81 1013.3
20260506184516 19 225 4.8 14.5 0.00 0.28 0.25 83 1013.7
20260506183516 19 225 4.8 9.7 0.00 0.28 0.25 82 1013.4
20260506182516 20 270 3.2 11.3 0.00 0.28 0.25 81 1013.2
20260506181516 20 203 6.4 16.1 0.00 0.28 0.25 80 1013.1
20260506180516 20 248 4.8 12.9 0.00 0.28 0.25 82 1012.9
20260506175516 19 270 4.8 12.9 0.00 0.28 0.25 83 1013.0
20260506174515 19 293 4.8 16.1 0.00 0.28 0.25 84 1012.7
20260506173515 19 225 3.2 9.7 0.00 0.28 0.25 84 1012.6
20260506172515 19 225 6.4 19.3 0.00 0.28 0.25 84 1012.7
20260506171516 19 248 4.8 16.1 0.00 0.28 0.25 84 1012.7
20260506170515 19 225 6.4 16.1 0.00 0.28 0.25 83 1012.6
20260506165516 20 248 4.8 17.7 0.00 0.28 0.25 83 1012.5
20260506164515 20 225 6.4 14.5 0.00 0.28 0.25 84 1012.3
20260506163535 20 225 4.8 12.9 0.00 0.28 0.25 84 1012.5
20260506162516 18 180 4.8 9.7 0.00 0.28 0.25 86 1012.4
20260506161535 18 180 4.8 11.3 0.03 0.28 0.25 87 1012.5
20260506160515 18 203 9.7 20.9 0.03 0.28 0.25 87 1012.6
20260506155516 17 180 4.8 16.1 0.03 0.28 0.25 88 1012.5
20260506154517 17 203 4.8 14.5 0.08 0.28 0.25 89 1012.5
20260506153517 17 180 8.0 19.3 0.08 0.28 0.25 89 1012.4
20260506152517 17 225 6.4 17.7 0.08 0.28 0.25 90 1012.7
20260506151517 17 203 6.4 12.9 0.05 0.25 0.23 90 1013.1
20260506150517 17 180 4.8 12.9 0.05 0.25 0.23 90 1013.1
20260506145517 17 225 4.8 11.3 0.05 0.25 0.23 89 1013.3
20260506144517 17 225 8.0 25.7 0.00 0.20 0.18 87 1012.8
20260506143617 17 225 8.0 16.1 0.00 0.20 0.18 87 1012.7
20260506142517 17 225 11.3 29.0 0.00 0.20 0.18 87 1012.5
20260506141517 17 225 8.0 19.3 0.00 0.20 0.18 87 1012.4
20260506140517 18 225 9.7 24.1 0.00 0.20 0.18 86 1012.2
20260506135517 17 225 6.4 16.1 0.03 0.20 0.18 87 1011.8
20260506134517 17 225 4.8 12.9 0.03 0.20 0.18 88 1011.3
20260506133517 17 225 9.7 27.4 0.03 0.20 0.18 88 1011.9
20260506132517 17 203 8.0 17.7 0.03 0.20 0.18 88 1012.0
20260506131517 17 203 8.0 16.1 0.05 0.20 0.18 88 1011.8
20260506130517 17 225 8.0 24.1 0.08 0.20 0.18 88 1011.9
20260506125537 17 225 8.0 20.9 0.08 0.18 0.15 87 1012.0
20260506124517 17 203 4.8 14.5 0.08 0.18 0.15 87 1011.9
20260506123517 17 203 6.4 16.1 0.08 0.18 0.15 87 1011.4
20260506122517 17 225 4.8 12.9 0.08 0.18 0.15 87 1011.6
20260506121517 17 203 4.8 11.3 0.05 0.15 0.13 85 1012.0
20260506120517 17 203 6.4 16.1 0.05 0.13 0.10 83 1012.1
20260506115517 17 180 4.8 12.9 0.03 0.10 0.08 80 1011.7
20260506114517 18 225 4.8 12.9 0.03 0.10 0.08 78 1011.8